TimeMDT,TemperatureF,Dew PointF,Humidity,Sea Level PressureIn,VisibilityMPH,Wind Direction,Wind SpeedMPH,Gust SpeedMPH,PrecipitationIn,Events,Conditions,WindDirDegrees,DateUTC
12:55 AM,55.0,50.0,83,29.83,10.0,North,3.5,-,N/A,,Clear,350,2013-08-24 06:55:00
1:55 AM,53.1,48.9,86,29.84,10.0,Calm,Calm,-,N/A,,Clear,0,2013-08-24 07:55:00
2:55 AM,52.0,50.0,93,29.85,10.0,Calm,Calm,-,N/A,,Clear,0,2013-08-24 08:55:00
3:55 AM,50.0,46.9,89,29.86,10.0,NNE,3.5,-,N/A,,Clear,30,2013-08-24 09:55:00
4:55 AM,48.0,46.9,96,29.87,10.0,Calm,Calm,-,N/A,,Clear,0,2013-08-24 10:55:00
5:55 AM,46.9,46.0,97,29.88,7.0,Calm,Calm,-,N/A,,Clear,0,2013-08-24 11:55:00
6:33 AM,46.4,44.6,93,29.91,1.8,Calm,Calm,-,N/A,,Clear,0,2013-08-24 12:33:00
6:39 AM,46.4,44.6,93,29.91,3.0,Calm,Calm,-,N/A,,Clear,0,2013-08-24 12:39:00
6:50 AM,46.4,44.6,93,29.91,1.5,Calm,Calm,-,N/A,,Clear,0,2013-08-24 12:50:00
6:52 AM,46.4,44.6,93,29.91,0.8,Calm,Calm,-,N/A,,Clear,0,2013-08-24 12:52:00
6:55 AM,46.0,45.0,96,29.90,0.2,Calm,Calm,-,N/A,Fog,Fog,0,2013-08-24 12:55:00
7:08 AM,46.4,44.6,93,29.91,1.0,Calm,Calm,-,N/A,,Clear,0,2013-08-24 13:08:00
7:10 AM,46.4,44.6,93,29.91,3.0,Calm,Calm,-,N/A,,Clear,0,2013-08-24 13:10:00
7:43 AM,48.2,46.4,93,29.92,1.8,Calm,Calm,-,N/A,,Clear,0,2013-08-24 13:43:00
7:55 AM,51.1,48.0,89,29.90,10.0,Calm,Calm,-,N/A,,Clear,0,2013-08-24 13:55:00
8:55 AM,61.0,53.1,75,29.91,10.0,Calm,Calm,-,N/A,,Clear,0,2013-08-24 14:55:00
9:55 AM,64.9,53.1,65,29.90,10.0,Calm,Calm,-,N/A,,Clear,0,2013-08-24 15:55:00
10:55 AM,70.0,52.0,53,29.90,10.0,Calm,Calm,-,N/A,,Clear,0,2013-08-24 16:55:00
11:55 AM,75.0,51.1,43,29.88,10.0,South,9.2,-,N/A,,Clear,170,2013-08-24 17:55:00
12:55 PM,77.0,48.0,36,29.87,10.0,South,8.1,-,N/A,,Clear,180,2013-08-24 18:55:00
1:55 PM,80.1,48.0,32,29.84,10.0,South,9.2,-,N/A,,Clear,170,2013-08-24 19:55:00
2:55 PM,82.0,48.0,30,29.83,10.0,East,4.6,-,N/A,,Clear,80,2013-08-24 20:55:00
3:55 PM,84.0,45.0,25,29.80,10.0,Calm,Calm,-,N/A,,Clear,0,2013-08-24 21:55:00
4:55 PM,84.0,45.0,25,29.78,10.0,SSE,9.2,-,N/A,,Clear,150,2013-08-24 22:55:00
5:55 PM,84.9,42.1,22,29.76,10.0,NE,3.5,-,N/A,,Clear,40,2013-08-24 23:55:00
6:55 PM,84.9,37.9,19,29.74,10.0,Calm,Calm,-,N/A,,Clear,0,2013-08-25 00:55:00
7:55 PM,82.9,39.0,21,29.73,10.0,Calm,Calm,-,N/A,,Clear,0,2013-08-25 01:55:00
8:55 PM,69.1,46.9,45,29.75,10.0,Calm,Calm,-,N/A,,Clear,0,2013-08-25 02:55:00
9:55 PM,61.0,45.0,56,29.78,10.0,Calm,Calm,-,N/A,,Clear,0,2013-08-25 03:55:00
10:55 PM,61.0,46.9,60,29.75,10.0,Calm,Calm,-,N/A,,Clear,0,2013-08-25 04:55:00
11:55 PM,60.1,46.0,60,29.75,10.0,WNW,3.5,-,N/A,,Clear,290,2013-08-25 05:55:00